Location: Arthez
(43.0833°N, 0.2500°W)
Time: 08:28:02
(UTC+00:00)

deb Kosmos-970 - Pass Details

Date: 22 August 2022
Orbit: 900 x 1112 km, 65.8° (Epoch: 04 October)

Event Time Altitude Azimuth Distance (km) Brightness Sun altitude
Rises 19:44:11 0° 321° (NW) 3,945 ? -9.6°
Reaches altitude 10° 19:49:23 10° 353° (N) 2,984 ? -10.4°
Maximum altitude 19:51:40 12° 12° (NNE) 2,859 ? -10.8°
Drops below altitude 10° 19:53:56 10° 31° (NNE) 2,967 ? -11.2°
Sets 19:59:02 0° 63° (ENE) 3,890 ? -12.0°
